Hourly Weather Agnieszkowo

Today, 7 March, Sunday

Time Temperature Precipitation Wind Pressure Humidity
00:00 -2°C° 0 mm 7 mps 755 mmHg 80%
01:00 -2°C° 0 mm 7 mps 754 mmHg 83%
02:00 -2°C° 0 mm 7 mps 753 mmHg 81%
03:00 -2°C° 0 mm 8 mps 753 mmHg 79%
04:00 -2°C° 0 mm 8 mps 752 mmHg 77%
05:00 -4°C° 0 mm 8 mps 752 mmHg 78%
06:00 -4°C° 0 mm 9 mps 752 mmHg 78%
07:00 -4°C° 0 mm 9 mps 751 mmHg 78%
08:00 -4°C° 0 mm 9 mps 751 mmHg 77%
09:00 -3°C° 0 mm 9 mps 751 mmHg 77%
10:00 -2°C° 0 mm 10 mps 750 mmHg 76%
11:00 -1°C° 0 mm 9 mps 750 mmHg 74%
12:00 -1°C° 0 mm 9 mps 750 mmHg 73%
13:00 0°C° 0 mm 9 mps 750 mmHg 71%
14:00 -1°C° 0 mm 9 mps 749 mmHg 76%
15:00 -1°C° 0 mm 9 mps 749 mmHg 82%
16:00 -1°C° 0 mm 9 mps 749 mmHg 87%
17:00 -2°C° 0.4 mm 8 mps 749 mmHg 89%
18:00 -2°C° 0.4 mm 7 mps 749 mmHg 91%
19:00 -3°C° 0.4 mm 6 mps 749 mmHg 93%
20:00 -2°C° 0.4 mm 5 mps 749 mmHg 90%
21:00 -2°C° 0.4 mm 3 mps 749 mmHg 87%
22:00 -3°C° 0.4 mm 2 mps 749 mmHg 83%
23:00 -3°C° 0 mm 2 mps 750 mmHg 84%

Tomorrow, 8 March, Monday

Time Temperature Precipitation Wind Pressure Humidity
00:00 -4°C° 0 mm 2 mps 750 mmHg 86%
01:00 -4°C° 0 mm 2 mps 750 mmHg 87%
02:00 -5°C° 0 mm 3 mps 750 mmHg 84%
03:00 -5°C° 0 mm 3 mps 750 mmHg 82%
04:00 -5°C° 0 mm 3 mps 750 mmHg 79%
05:00 -5°C° 0 mm 3 mps 751 mmHg 78%
06:00 -5°C° 0 mm 4 mps 751 mmHg 76%
07:00 -5°C° 0 mm 4 mps 752 mmHg 75%
08:00 -3°C° 0 mm 4 mps 752 mmHg 71%
09:00 -2°C° 0 mm 4 mps 752 mmHg 66%
10:00 -1°C° 0 mm 4 mps 753 mmHg 61%
11:00 -1°C° 0.1 mm 5 mps 753 mmHg 59%
12:00 0°C° 0.1 mm 5 mps 753 mmHg 57%
13:00 0°C° 0.1 mm 5 mps 753 mmHg 56%
14:00 0°C° 0.1 mm 5 mps 753 mmHg 57%
15:00 0°C° 0.1 mm 5 mps 753 mmHg 58%
16:00 -1°C° 0.1 mm 4 mps 753 mmHg 59%
17:00 -2°C° 0 mm 4 mps 754 mmHg 66%
18:00 -2°C° 0 mm 3 mps 754 mmHg 72%
19:00 -3°C° 0 mm 2 mps 754 mmHg 78%
20:00 -3°C° 0 mm 2 mps 754 mmHg 78%
21:00 -4°C° 0 mm 2 mps 755 mmHg 79%
22:00 -4°C° 0 mm 2 mps 755 mmHg 79%
23:00 -2°C° 0 mm 1 mps 755 mmHg 79%

Day after tomorrow, 9 March, Tuesday

Time Temperature Precipitation Wind Pressure Humidity
00:00 -2°C° 0 mm 1 mps 755 mmHg 79%
01:00 -1°C° 0 mm 1 mps 755 mmHg 78%
02:00 -1°C° 0 mm 1 mps 755 mmHg 78%
03:00 -1°C° 0 mm 1 mps 754 mmHg 79%
04:00 -1°C° 0 mm 1 mps 754 mmHg 79%
05:00 -1°C° 0 mm 1 mps 754 mmHg 78%
06:00 -2°C° 0 mm 0 mps 754 mmHg 77%
07:00 -2°C° 0 mm 0 mps 755 mmHg 76%
08:00 -1°C° 0 mm 0 mps 755 mmHg 71%
09:00 -1°C° 0 mm 0 mps 755 mmHg 65%
10:00 0°C° 0 mm 0 mps 755 mmHg 60%
11:00 +1°C° 0 mm 1 mps 755 mmHg 55%
12:00 +2°C° 0 mm 1 mps 755 mmHg 51%
13:00 +2°C° 0 mm 1 mps 754 mmHg 47%
14:00 +2°C° 0 mm 1 mps 754 mmHg 47%
15:00 +2°C° 0 mm 1 mps 754 mmHg 47%
16:00 +2°C° 0 mm 1 mps 753 mmHg 48%
17:00 +1°C° 0 mm 1 mps 753 mmHg 53%
18:00 0°C° 0 mm 1 mps 754 mmHg 57%
19:00 -1°C° 0 mm 1 mps 754 mmHg 62%
20:00 -1°C° 0 mm 1 mps 754 mmHg 64%
21:00 -1°C° 0 mm 1 mps 754 mmHg 66%
22:00 -3°C° 0 mm 2 mps 754 mmHg 68%
23:00 -3°C° 0 mm 2 mps 754 mmHg 69%

10 March, Wednesday

Time Temperature Precipitation Wind Pressure Humidity
00:00 -3°C° 0 mm 2 mps 754 mmHg 70%
01:00 -4°C° 0 mm 2 mps 754 mmHg 71%
02:00 -1°C° 0 mm 1 mps 754 mmHg 71%
03:00 -1°C° 0 mm 1 mps 754 mmHg 72%
04:00 -1°C° 0 mm 1 mps 754 mmHg 72%
05:00 -1°C° 0 mm 1 mps 754 mmHg 71%
06:00 -1°C° 0 mm 1 mps 754 mmHg 71%
07:00 -1°C° 0 mm 1 mps 754 mmHg 70%
08:00 0°C° 0 mm 1 mps 754 mmHg 64%
09:00 +1°C° 0 mm 1 mps 754 mmHg 59%
10:00 +3°C° 0 mm 1 mps 754 mmHg 53%
11:00 +2°C° 0 mm 2 mps 754 mmHg 49%
12:00 +3°C° 0 mm 2 mps 754 mmHg 44%
13:00 +4°C° 0 mm 2 mps 754 mmHg 40%
14:00 +4°C° 0 mm 2 mps 754 mmHg 43%
15:00 +4°C° 0 mm 2 mps 753 mmHg 45%
16:00 +4°C° 0 mm 2 mps 753 mmHg 47%
17:00 +2°C° 0 mm 2 mps 753 mmHg 52%
18:00 +1°C° 0 mm 2 mps 753 mmHg 56%
19:00 -1°C° 0 mm 3 mps 753 mmHg 60%
20:00 -2°C° 0 mm 3 mps 752 mmHg 62%
21:00 -2°C° 0 mm 3 mps 752 mmHg 64%
22:00 -2°C° 0 mm 3 mps 752 mmHg 66%
23:00 -2°C° 0 mm 3 mps 751 mmHg 70%

11 March, Thursday

Time Temperature Precipitation Wind Pressure Humidity
00:00 -2°C° 0 mm 3 mps 751 mmHg 74%
01:00 -2°C° 0 mm 3 mps 750 mmHg 78%
02:00 -3°C° 0 mm 4 mps 749 mmHg 80%
03:00 -2°C° 0 mm 5 mps 749 mmHg 81%
04:00 -2°C° 0 mm 5 mps 748 mmHg 83%
05:00 -2°C° 0 mm 6 mps 747 mmHg 82%
06:00 -2°C° 0 mm 6 mps 746 mmHg 82%
07:00 -2°C° 0 mm 7 mps 745 mmHg 82%
08:00 -1°C° 0.4 mm 7 mps 744 mmHg 86%
09:00 0°C° 0.4 mm 7 mps 743 mmHg 89%
10:00 0°C° 0.4 mm 8 mps 743 mmHg 92%
11:00 +1°C° 1 mm 8 mps 742 mmHg 92%
12:00 +1°C° 1 mm 8 mps 741 mmHg 93%
13:00 +1°C° 1 mm 8 mps 740 mmHg 93%
14:00 +3°C° 0.5 mm 7 mps 740 mmHg 91%
15:00 +4°C° 0.5 mm 7 mps 739 mmHg 89%
16:00 +5°C° 0.5 mm 7 mps 738 mmHg 87%
17:00 +5°C° 0.2 mm 7 mps 738 mmHg 86%
18:00 +5°C° 0.2 mm 7 mps 738 mmHg 85%
19:00 +5°C° 0.2 mm 6 mps 738 mmHg 84%
20:00 +4°C° 0.1 mm 6 mps 738 mmHg 85%
21:00 +4°C° 0.1 mm 7 mps 739 mmHg 85%
22:00 +4°C° 0.1 mm 7 mps 739 mmHg 86%
23:00 +3°C° 0 mm 7 mps 739 mmHg 85%

12 March, Friday

Time Temperature Precipitation Wind Pressure Humidity
00:00 +3°C° 0 mm 7 mps 739 mmHg 85%
01:00 +2°C° 0 mm 7 mps 739 mmHg 84%
02:00 +2°C° 0 mm 6 mps 739 mmHg 85%
03:00 +2°C° 0 mm 6 mps 739 mmHg 86%
04:00 +2°C° 0 mm 6 mps 739 mmHg 86%
05:00 +2°C° 0 mm 7 mps 739 mmHg 87%
06:00 +2°C° 0 mm 7 mps 739 mmHg 87%
07:00 +2°C° 0 mm 7 mps 740 mmHg 87%
08:00 +1°C° 0.1 mm 8 mps 740 mmHg 82%
09:00 +2°C° 0.1 mm 9 mps 740 mmHg 76%
10:00 +2°C° 0.1 mm 10 mps 740 mmHg 71%
11:00 +3°C° 0.1 mm 10 mps 740 mmHg 71%
12:00 +3°C° 0.1 mm 10 mps 741 mmHg 70%
13:00 +3°C° 0.1 mm 10 mps 741 mmHg 69%
14:00 +3°C° 0.1 mm 10 mps 741 mmHg 67%
15:00 +3°C° 0.1 mm 9 mps 742 mmHg 64%
16:00 +5°C° 0.1 mm 9 mps 742 mmHg 61%
17:00 +4°C° 0 mm 7 mps 742 mmHg 66%
18:00 +3°C° 0 mm 6 mps 742 mmHg 70%
19:00 +2°C° 0 mm 5 mps 743 mmHg 74%
20:00 +2°C° 0 mm 5 mps 743 mmHg 75%
21:00 +1°C° 0 mm 5 mps 743 mmHg 76%
22:00 +1°C° 0 mm 6 mps 743 mmHg 77%
23:00 +1°C° 0 mm 6 mps 743 mmHg 78%
Show more